,

(GMT )
Resia Pass

Weather History for LIVE - September, 2012

Change the Weather History Date:

Monday, September 17, 2012

  Actual Average Record
Temperature  
Mean Temperature 53 °F -  
Max Temperature 62 °F 58 °F 71 °F (1997)
Min Temperature 44 °F 42 °F 33 °F (2008)
Degree Days  
Heating Degree Days 12    
Growing Degree Days 3 (Base 50)    
Moisture  
Dew Point 43 °F    
Average Humidity 73    
Maximum Humidity 93    
Minimum Humidity 5    
Precipitation  
Precipitation 0.00 in - - ()
Sea Level Pressure  
Sea Level Pressure 30.08 in    
Wind  
Wind Speed 4 mph ()    
Max Wind Speed 8 mph    
Max Gust Speed -    
Averages and records for this station are not official NWS values.
T = Trace of Precipitation, MM = Missing Value Source: Averaged Metar Reports

Daily Weather History Graph

Daily Weather History Graph

Search for Another Location

Airport or City:

Trip Planner

Search our weather history database for the weather conditions in past years. The results will help you decide how hot, cold, wet, or windy it might be!

Date:

Astronomy

Sep. 17, 2012 Rise Set
Actual Time 6:58 AM CEST 7:25 PM CEST
Civil Twilight 6:28 AM CEST 7:55 PM CEST
Nautical Twilight 5:52 AM CEST 8:31 PM CEST
Astronomical Twilight 5:14 AM CEST 9:08 PM CEST
Moon 8:37 AM CEST (9/17) 7:45 PM CEST (9/17)
Length of Visible Light 13h 27m
Length of Day
12h 26m
New Moon, 2% of the Moon is Illuminated
Sep 17
New Moon
Sep 22
First Quarter
Sep 30
Full
Oct 8
Last Quarter
Oct 15
New

Hourly Weather History & Observations

Time (CEST) Temp. Windchill Dew Point Humidity Pressure Visibility Wind Dir Wind Speed Gust Speed Precip Events Conditions
12:55 AM 46.4 °F 45.2 °F 44.6 °F 93% 30.09 in - NNE 3.5 mph - N/A   Clear
1:55 AM 46.4 °F 45.2 °F 44.6 °F 93% 30.09 in - North 3.5 mph - N/A   Clear
2:55 AM 44.6 °F 41.4 °F 42.8 °F 93% 30.09 in - NNE 5.8 mph - N/A   Clear
3:55 AM 44.6 °F 42.2 °F -22.0 °F 5% 30.09 in - NNE 4.6 mph - N/A   Clear
4:55 AM 44.6 °F 41.4 °F 42.8 °F 93% 30.09 in - North 5.8 mph - N/A   Clear
6:55 AM 44.6 °F 43.1 °F 42.8 °F 93% 30.09 in - NNE 3.5 mph - N/A   Clear
7:55 AM 44.6 °F - 42.8 °F 93% 30.06 in - Variable 1.2 mph - N/A   Clear
8:55 AM 44.6 °F - 42.8 °F 93% 30.09 in - Calm Calm - N/A   Clear
9:55 AM 48.2 °F - 44.6 °F 87% 30.09 in - NNW 5.8 mph - N/A   Clear
10:55 AM 53.6 °F - 44.6 °F 72% 30.06 in - North 6.9 mph - N/A   Clear
11:55 AM 59.0 °F - 39.2 °F 48% 30.06 in - NNW 5.8 mph - N/A   Clear
12:55 PM 62.6 °F - 39.2 °F 42% 30.06 in - SSW 6.9 mph - N/A   Clear
1:55 PM 62.6 °F - 46.4 °F 55% 30.06 in - SSW 5.8 mph - N/A   Clear
2:55 PM 62.6 °F - 46.4 °F 55% 30.06 in - SSW 6.9 mph - N/A   Clear
3:55 PM 62.6 °F - 46.4 °F 55% 30.06 in - SSW 8.1 mph - N/A   Clear
4:55 PM 62.6 °F - 46.4 °F 55% 30.06 in - South 6.9 mph - N/A   Clear
5:55 PM 60.8 °F - 46.4 °F 59% 30.06 in - SSW 6.9 mph - N/A   Clear
6:55 PM 59.0 °F - 48.2 °F 67% 30.06 in - WSW 3.5 mph - N/A   Clear
7:55 PM 59.0 °F - 51.8 °F 77% 30.09 in - Calm Calm - N/A   Clear
8:55 PM 55.4 °F - 51.8 °F 88% 30.12 in - NE 3.5 mph - N/A   Clear
9:55 PM 53.6 °F - 50.0 °F 88% 30.12 in - Calm Calm - N/A   Clear
10:55 PM 53.6 °F - 50.0 °F 88% 30.12 in - NNE 3.5 mph - N/A   Clear
11:55 PM 53.6 °F - 50.0 °F 88% 30.15 in - Calm Calm - N/A   Clear